Location: *
(43.4667°N, 11.6833°E)
Time: 04:27:47
(UTC+00:00)

BREEZE-M DEB (TANK) - Pass Details

Date: 19 July 2019
Orbit: 282 x 16856 km, 49.4° (Epoch: 20 August)

Event Time Altitude Azimuth Distance (km) Brightness Sun altitude
Rises 22:54:01 0° 297° (WNW) 2,325 6.0 -25.5°
Reaches altitude 10° 22:55:19 10° 302° (WNW) 1,714 5.3 -25.5°
Maximum altitude 22:58:38 63° 25° (NNE) 964 3.6 -25.6°
Drops below altitude 10° 23:10:19 10° 106° (ESE) 5,747 7.3 -25.7°
Sets 23:19:21 0° 110° (ESE) 9,148 8.3 -25.8°
